Regional Weather Roundup
Issued by NWS

Home | Current Version | Previous Version | Graphics & Text | Print | Product List | Glossary On
Versions: 1 2 3 4 5 6 7 8 9 10 11 12 13 14 15 16 17 18 19 20 21 22 23 24 25 26 27 28 29 30 31 32 33 34 35 36 37 38 39 40 41 42 43 44 45 46 47 48 49 50
000
ASUS43 KOAX 011510
RWRNE

WEATHER ROUNDUP FOR NEBRASKA
NATIONAL WEATHER SERVICE OMAHA NE
1000 AM CDT MON JUN 01 2015

NOTES: SATELLITE DATA IS BEING USED TO AUGMENT CLOUD COVER ABOVE
       12000 FEET.
       "FAIR" INDICATES FEW OR NO CLOUDS BELOW 12,000 FEET WITH NO
       SIGNIFICANT WEATHER AND/OR OBSTRUCTIONS TO VISIBILITY.

  * THESE STATIONS DO NOT REPORT WEATHER SUCH AS RAIN...SNOW OR FOG.

NEZ001>004-019>022-054>056-011600-
NEBRASKA PANHANDLE

CITY           SKY/WX    TMP DP  RH WIND       PRES   REMARKS
SCOTTSBLUFF    MOSUNNY   63  58  83 SE12      30.02S
ALLIANCE       CLOUDY    58  57  97 S12       30.04R FOG
CHADRON        SUNNY     71  62  73 CALM      29.97F
KIMBALL          N/A    N/A N/A N/A MISG        N/A
SIDNEY         SUNNY     68  59  73 S9        30.07S
$$

NEZ057>060-069>072-079>082-011600-
SOUTHWEST NEBRASKA

CITY           SKY/WX    TMP DP  RH WIND       PRES   REMARKS
NORTH PLATTE   CLOUDY    60  55  83 S10       30.07S
IMPERIAL       CLOUDY    59  56  89 SE7       30.06S
LEXINGTON      PTSUNNY   66  58  77 S15       30.09R
MCCOOK         CLOUDY    60  56  86 S8        30.06S
OGALLALA       CLOUDY    57  56  97 SE5       30.06S
$$

NEZ005>010-023>029-035>040-094-011600-
NORTH CENTRAL NEBRASKA

CITY           SKY/WX    TMP DP  RH WIND       PRES   REMARKS
VALENTINE      PTSUNNY   67  56  67 S13       30.02F
AINSWORTH      PTSUNNY   65  56  72 S16G22    30.05S
BROKEN BOW     CLOUDY    64  56  75 S14       30.08F
O`NEILL        MOSUNNY   67  56  68 S16       30.08F
ORD            SUNNY     66  55  67 S12       30.08F
THEDFORD       CLOUDY    62  56  82 S12       30.07S
$$

NEZ041-046>049-061>064-073>077-083>087-011600-
SOUTH CENTRAL NEBRASKA

CITY           SKY/WX    TMP DP  RH WIND       PRES   REMARKS
GRAND ISLAND   PTSUNNY   66  55  67 S14       30.12S
AURORA         CLOUDY    65  56  71 SE14      30.12S
HASTINGS       PTSUNNY   63  55  75 SE14      30.11S
HEBRON         CLOUDY    65  53  65 SE9       30.14S
HOLDREGE       SUNNY     66  56  71 S16       30.09S
KEARNEY *      PTSUNNY   64  55  72 S14       30.10F
YORK           MOSUNNY   66  55  68 SE12      30.13F
$$

NEZ011>018-030>034-042>045-011600-
NORTHEAST NEBRASKA

CITY           SKY/WX    TMP DP  RH WIND       PRES   REMARKS
NORFOLK        SUNNY     67  53  61 S12       30.13S
ALBION         PTSUNNY   64  53  68 S14G20    30.12F
BLAIR          SUNNY     64  53  66 SE12      30.16F
COLUMBUS *     CLOUDY    64  52  63 S12       30.16S
FREMONT        SUNNY     67  55  65 SE12      30.16S
TEKAMAH        MOSUNNY   66  55  67 SE13      30.16F
WAYNE          SUNNY     65  55  68 S12       30.14F
$$

NEZ050>053-065>068-078-088>093-011600-
SOUTHEAST NEBRASKA

CITY           SKY/WX    TMP DP  RH WIND       PRES   REMARKS
LINCOLN        MOSUNNY   66  55  67 S10       30.15F
OMAHA EPPLEY   MOSUNNY   65  54  67 SE14      30.17S
BEATRICE       MOSUNNY   65  55  70 SE7       30.15S
FALLS CITY     CLOUDY    64  55  72 SE7       30.17S
NEBRASKA CITY  PTSUNNY   64  52  65 SE7       30.17S
PLATTSMOUTH    CLOUDY    64  53  67 SE8       30.17F
$$

NEZ044-045-051>053-067-011600-
OMAHA AREA

CITY           SKY/WX    TMP DP  RH WIND       PRES   REMARKS
OMAHA EPPLEY   MOSUNNY   65  54  67 SE14      30.17S
BLAIR          SUNNY     64  53  66 SE12      30.16F
FREMONT        SUNNY     67  55  65 SE12      30.16S
MILLARD        SUNNY     66  56  69 SE8       30.16F
OFFUTT AFB     SUNNY     65  56  70 SE2       30.16F
PLATTSMOUTH    CLOUDY    64  53  67 SE8       30.17F
WAHOO          FAIR      66  55  67 S12       30.15S
$$


USA.gov is the U.S. government's official web portal to all federal, state and local government web resources and services.